Visalia, CA

3:23 AM PDT on October 16, 2019 (GMT -0700)
Visalia Municipal

Weather History for KVIS - August, 2019

Change the Weather History Date:

Tuesday, August 6, 2019

  Actual Average Record
Temperature  
Mean Temperature 84 °F -  
Max Temperature 102 °F 95 °F 110 °F (1936)
Min Temperature 66 °F 65 °F 52 °F (1954)
Cooling Degree Days 19    
Growing Degree Days 34 (Base 50)    
Moisture  
Dew Point 63 °F    
Average Humidity 55    
Maximum Humidity 90    
Minimum Humidity 19    
Precipitation  
Precipitation 0.00 in - - ()
Sea Level Pressure  
Sea Level Pressure 29.86 in    
Wind  
Wind Speed 4 mph (West)    
Max Wind Speed 9 mph    
Max Gust Speed -    
Visibility 10 miles    
Events      
Averages and records for this station are not official NWS values.
T = Trace of Precipitation, MM = Missing Value Source: NWS Daily Summary

Daily Weather History Graph

Daily Weather History Graph

Search for Another Location

Airport or City:

Astronomy

Aug. 06, 2019 Rise Set
Actual Time 6:08 AM PDT 7:58 PM PDT
Civil Twilight 5:40 AM PDT 8:26 PM PDT
Nautical Twilight 5:06 AM PDT 9:00 PM PDT
Astronomical Twilight 4:29 AM PDT 9:36 PM PDT
Moon 12:27 PM PDT (8/6) 11:57 PM PDT (8/6)
Length of Visible Light 14h 46m
Length of Day
13h 50m
Waxing Crescent, 40% of the Moon is Illuminated
Aug 6
Waxing Crescent
Aug 7
First Quarter
Aug 15
Full
Aug 23
Last Quarter
Aug 30
New

Hourly Weather History & Observations

Time (PDT) Temp. Heat Index Dew Point Humidity Pressure Visibility Wind Dir Wind Speed Gust Speed Precip Events Conditions
12:56 AM 73.9 °F - 64.0 °F 71% 29.87 in 10.0 mi NW 4.6 mph - N/A   Clear
1:56 AM 73.0 °F - 63.0 °F 71% 29.87 in 10.0 mi West 3.5 mph - N/A   Clear
2:56 AM 71.1 °F - 63.0 °F 75% 29.87 in 10.0 mi Calm Calm - N/A   Clear
3:56 AM 68.0 °F - 63.0 °F 84% 29.87 in 10.0 mi Calm Calm - N/A   Clear
4:56 AM 66.9 °F - 63.0 °F 87% 29.87 in 10.0 mi Calm Calm - N/A   Clear
5:56 AM 66.0 °F - 62.1 °F 87% 29.88 in 10.0 mi Calm Calm - N/A   Clear
6:56 AM 66.9 °F - 64.0 °F 90% 29.89 in 9.0 mi Calm Calm - N/A   Clear
7:56 AM 72.0 °F - 64.0 °F 76% 29.91 in 10.0 mi SE 4.6 mph - N/A   Clear
8:56 AM 75.0 °F - 64.9 °F 71% 29.91 in 9.0 mi South 5.8 mph - N/A   Clear
9:56 AM 81.0 °F 82.7 °F 64.9 °F 58% 29.91 in 10.0 mi SSW 6.9 mph - N/A   Clear
10:56 AM 84.0 °F 85.8 °F 64.9 °F 53% 29.91 in 4.0 mi Variable 6.9 mph - N/A   Haze
11:56 AM 86.0 °F 87.6 °F 64.9 °F 49% 29.90 in 10.0 mi SSW 4.6 mph - N/A   Clear
12:56 PM 90.0 °F 90.6 °F 63.0 °F 40% 29.88 in 10.0 mi South 4.6 mph - N/A   Clear
1:56 PM 93.9 °F 94.8 °F 62.1 °F 35% 29.86 in 10.0 mi South 4.6 mph - N/A   Clear
2:56 PM 97.0 °F 97.8 °F 62.1 °F 31% 29.84 in 10.0 mi SW 3.5 mph - N/A   Clear
3:56 PM 98.1 °F 99.6 °F 63.0 °F 31% 29.82 in 10.0 mi West 6.9 mph - N/A   Clear
4:56 PM 99.0 °F 99.5 °F 61.0 °F 28% 29.80 in 10.0 mi WNW 9.2 mph - N/A   Clear
5:56 PM 102.0 °F - 52.0 °F 19% 29.79 in 10.0 mi NW 8.1 mph - N/A   Clear
6:56 PM 99.0 °F 97.7 °F 55.9 °F 24% 29.79 in 10.0 mi NNW 6.9 mph - N/A   Clear
7:56 PM 91.9 °F 92.5 °F 62.1 °F 37% 29.80 in 10.0 mi NW 6.9 mph - N/A   Clear
8:56 PM 87.1 °F 88.3 °F 64.0 °F 46% 29.81 in 10.0 mi WNW 5.8 mph - N/A   Clear
9:56 PM 84.9 °F 86.1 °F 64.0 °F 49% 29.84 in 10.0 mi NW 9.2 mph - N/A   Clear
10:56 PM 82.9 °F 84.6 °F 64.9 °F 54% 29.84 in 10.0 mi NW 8.1 mph - N/A   Clear
11:56 PM 79.0 °F - 66.0 °F 64% 29.85 in 10.0 mi NW 6.9 mph - N/A   Clear